Change the Weather History Date:

Sunday, September 1, 2013

  Actual Average Record
Temperature  
Mean Temperature 84 °F 81 °F  
Max Temperature 92 °F 91 °F 97 °F (1951)
Min Temperature 75 °F 71 °F 61 °F (1934)
Degree Days  
Heating Degree Days 0    
Month to date heating degree days 0  
Since 1 July heating degree days 0  
Cooling Degree Days 19    
Month to date cooling degree days 19  
Year to date cooling degree days 2055  
Growing Degree Days 33 (Base 50)    
Moisture  
Dew Point 73 °F    
Average Humidity 72    
Maximum Humidity 94    
Minimum Humidity 49    
Precipitation  
Precipitation 0.04 in 0.18 in 2.35 in (1937)
Month to date precipitation 0.04 0.18  
Year to date precipitation 53.33 44.09  
Sea Level Pressure  
Sea Level Pressure 29.92 in    
Wind  
Wind Speed 4 mph (SW)    
Max Wind Speed 16 mph    
Max Gust Speed 21 mph    
Visibility 7 miles    
Events Rain    
T = Trace of Precipitation, MM = Missing Value Source: NWS Daily Summary

Daily Weather History Graph

Daily Weather History Graph

Search for Another Location

Airport or City:

Trip Planner

Search our weather history database for the weather conditions in past years. The results will help you decide how hot, cold, wet, or windy it might be!

Date:

Astronomy

Sep. 01, 2013 Rise Set
Actual Time 7:14 AM EDT 7:59 PM EDT
Civil Twilight 6:49 AM EDT 8:24 PM EDT
Nautical Twilight 6:20 AM EDT 8:53 PM EDT
Astronomical Twilight 5:51 AM EDT 9:22 PM EDT
Moon 3:45 AM EDT 5:28 PM EDT
Length of Visible Light 13h 34m
Length of Day
12h 45m
Waning Crescent, 14% of the Moon is Illuminated
Sep 1
Waning Crescent
Sep 5
New
Sep 12
First Quarter
Sep 19
Full
Sep 26
Last Quarter

Hourly Weather History & Observations

Time (EDT) Temp. Heat Index Dew Point Humidity Pressure Visibility Wind Dir Wind Speed Gust Speed Precip Events Conditions
12:53 AM 78.1 °F - 75.0 °F 90% 29.93 in 7.0 mi SSE 3.5 mph - N/A   Mostly Cloudy
1:53 AM 77.0 °F - 73.9 °F 90% 29.91 in 6.0 mi Calm Calm - N/A   Clear
2:53 AM 77.0 °F - 73.9 °F 90% 29.90 in 5.0 mi Calm Calm - N/A   Partly Cloudy
3:53 AM 75.9 °F - 73.9 °F 94% 29.91 in 5.0 mi Calm Calm - N/A   Clear
4:53 AM 75.9 °F - 73.0 °F 91% 29.91 in 5.0 mi Calm Calm - N/A   Clear
5:53 AM 75.9 °F - 73.9 °F 94% 29.91 in 5.0 mi Calm Calm - N/A   Clear
6:53 AM 75.9 °F - 73.0 °F 91% 29.93 in 5.0 mi Calm Calm - N/A   Clear
7:25 AM 75.2 °F - 73.4 °F 94% 29.93 in 2.0 mi Calm Calm - N/A   Partly Cloudy
7:53 AM 75.9 °F - 73.0 °F 91% 29.93 in 2.0 mi Calm Calm - N/A   Partly Cloudy
8:16 AM 75.2 °F - 73.4 °F 94% 29.94 in 3.0 mi Calm Calm - N/A   Partly Cloudy
8:53 AM 79.0 °F - 75.0 °F 88% 29.95 in 5.0 mi Calm Calm - N/A   Partly Cloudy
9:53 AM 82.9 °F 89.4 °F 73.9 °F 74% 29.96 in 7.0 mi SSW 4.6 mph - N/A   Partly Cloudy
10:53 AM 86.0 °F 92.2 °F 72.0 °F 63% 29.96 in 10.0 mi SSW 8.1 mph - N/A   Scattered Clouds
11:53 AM 89.1 °F 95.0 °F 71.1 °F 55% 29.96 in 10.0 mi SW 6.9 mph - N/A   Mostly Cloudy
12:53 PM 90.0 °F 96.9 °F 72.0 °F 55% 29.94 in 10.0 mi SSW 10.4 mph - N/A   Scattered Clouds
1:53 PM 91.0 °F 95.6 °F 69.1 °F 48% 29.94 in 10.0 mi SW 13.8 mph 20.7 mph N/A   Scattered Clouds
2:53 PM 91.0 °F 96.6 °F 70.0 °F 50% 29.92 in 10.0 mi SSW 11.5 mph 17.3 mph N/A   Scattered Clouds
3:53 PM 86.0 °F 91.5 °F 71.1 °F 61% 29.91 in 10.0 mi West 12.7 mph 17.3 mph N/A   Mostly Cloudy
4:04 PM 82.4 °F 88.2 °F 73.4 °F 74% 29.90 in 2.5 mi NW 12.7 mph - 0.03 in Rain Heavy Rain
4:35 PM 87.8 °F 95.6 °F 73.4 °F 62% 29.90 in 10.0 mi West 9.2 mph - 0.04 in   Mostly Cloudy
4:53 PM 86.0 °F 92.2 °F 72.0 °F 63% 29.90 in 10.0 mi West 8.1 mph - 0.04 in   Mostly Cloudy
5:53 PM 86.0 °F 92.2 °F 72.0 °F 63% 29.89 in 10.0 mi SW 4.6 mph - N/A   Scattered Clouds
6:53 PM 84.0 °F 91.2 °F 73.9 °F 72% 29.88 in 10.0 mi SSW 3.5 mph - N/A   Partly Cloudy
7:53 PM 84.0 °F 91.9 °F 75.0 °F 74% 29.91 in 10.0 mi Calm Calm - N/A   Partly Cloudy
8:53 PM 81.0 °F 86.7 °F 75.0 °F 82% 29.93 in 10.0 mi Calm Calm - N/A   Partly Cloudy
9:53 PM 80.1 °F 85.1 °F 75.0 °F 85% 29.93 in 10.0 mi South 3.5 mph - N/A   Clear
10:53 PM 79.0 °F - 75.0 °F 88% 29.94 in 10.0 mi Calm Calm - N/A   Clear
11:53 PM 78.1 °F - 75.0 °F 90% 29.94 in 7.0 mi Calm Calm - N/A   Clear